TimeMDT,TemperatureF,Dew PointF,Humidity,Sea Level PressureIn,VisibilityMPH,Wind Direction,Wind SpeedMPH,Gust SpeedMPH,PrecipitationIn,Events,Conditions,WindDirDegrees,DateUTC
12:53 AM,64.0,55.0,73,29.69,10.0,South,9.2,-,N/A,,Clear,170,2013-09-22 06:53:00
1:53 AM,63.0,55.0,75,29.68,10.0,South,9.2,-,N/A,,Clear,180,2013-09-22 07:53:00
2:53 AM,61.0,55.0,81,29.68,10.0,SSE,5.8,-,N/A,,Clear,160,2013-09-22 08:53:00
3:53 AM,57.0,54.0,89,29.67,10.0,East,5.8,-,N/A,,Clear,90,2013-09-22 09:53:00
4:53 AM,57.9,54.0,87,29.67,10.0,SE,4.6,-,N/A,,Clear,130,2013-09-22 10:53:00
5:53 AM,55.0,53.1,93,29.67,10.0,ESE,4.6,-,N/A,,Clear,120,2013-09-22 11:53:00
6:53 AM,54.0,52.0,93,29.70,9.0,SE,5.8,-,N/A,,Clear,140,2013-09-22 12:53:00
7:53 AM,57.9,54.0,87,29.69,10.0,SE,8.1,-,N/A,,Clear,140,2013-09-22 13:53:00
8:53 AM,64.0,55.0,73,29.69,10.0,SSE,11.5,-,N/A,,Clear,150,2013-09-22 14:53:00
9:53 AM,69.1,55.0,61,29.67,10.0,SSE,12.7,-,N/A,,Clear,160,2013-09-22 15:53:00
10:53 AM,75.0,55.9,51,29.65,10.0,SE,13.8,-,N/A,,Clear,140,2013-09-22 16:53:00
11:53 AM,78.1,55.0,45,29.62,10.0,SE,19.6,27.6,N/A,,Clear,140,2013-09-22 17:53:00
12:53 PM,82.0,55.0,39,29.60,10.0,SSE,19.6,25.3,N/A,,Clear,150,2013-09-22 18:53:00
1:53 PM,84.9,55.0,36,29.56,10.0,SSE,20.7,28.8,N/A,,Clear,150,2013-09-22 19:53:00
2:53 PM,87.1,54.0,32,29.54,10.0,SSE,20.7,31.1,N/A,,Clear,160,2013-09-22 20:53:00
3:53 PM,89.1,53.1,29,29.51,8.0,SSE,18.4,31.1,N/A,,Clear,160,2013-09-22 21:53:00
4:53 PM,88.0,51.1,28,29.48,10.0,SSE,23.0,32.2,N/A,,Clear,150,2013-09-22 22:53:00
5:53 PM,84.0,50.0,31,29.49,10.0,SSE,20.7,29.9,N/A,,Clear,160,2013-09-22 23:53:00
6:53 PM,80.1,46.9,31,29.51,10.0,SSE,21.9,28.8,N/A,,Clear,160,2013-09-23 00:53:00
7:53 PM,75.9,48.9,38,29.53,10.0,SSE,24.2,33.4,N/A,,Clear,150,2013-09-23 01:53:00
8:53 PM,73.9,45.0,35,29.53,10.0,SSE,23.0,33.4,N/A,,Clear,160,2013-09-23 02:53:00
9:53 PM,71.1,45.0,39,29.54,10.0,SE,18.4,26.5,N/A,,Clear,140,2013-09-23 03:53:00
10:53 PM,69.1,50.0,51,29.53,10.0,SSE,16.1,25.3,N/A,,Clear,160,2013-09-23 04:53:00
11:53 PM,66.0,50.0,56,29.54,10.0,South,9.2,-,N/A,,Clear,180,2013-09-23 05:53:00